Location: Austin
(30.3000°N, 97.7500°W)
Time: 23:49:14
(UTC-06:00)

IRAS Rocket - Pass Details

Date: 04 November 2025
Orbit: 845 x 876 km, 100.1° (Epoch: 15 November)

Event Time Altitude Azimuth Distance (km) Brightness Sun altitude
Rises 18:43:53 0° 155° (SSE) 3,452 7.2 -14.0°
Reaches altitude 10° 18:46:17 10° 152° (SSE) 2,516 6.5 -14.5°
Maximum altitude 18:51:47 61° 73° (ENE) 982 4.2 -15.7°
Drops below altitude 10° 18:57:16 10° 354° (N) 2,513 6.6 -16.9°
Sets 18:59:40 0° 351° (N) 3,449 7.4 -17.4°
